Topeka, KS

1:50 AM CDT on October 23, 2019 (GMT -0500)
Billard Municipal

Weather History for KTOP - August, 2019

Change the Weather History Date:

Thursday, August 22, 2019

  Actual Average Record
Temperature  
Mean Temperature 78 °F 77 °F  
Max Temperature 83 °F 88 °F 103 °F (1936)
Min Temperature 72 °F 65 °F 48 °F (1889)
Degree Days  
Heating Degree Days 0 0  
Month to date heating degree days 0 0  
Since 1 June heating degree days 0 8  
Since 1 July heating degree days 0 0  
Cooling Degree Days 13 12  
Month to date cooling degree days 301 290  
Year to date cooling degree days 1180 1132  
Since 1 June cooling degree days 1068 1006  
Growing Degree Days 27 (Base 50)    
Moisture  
Dew Point 70 °F    
Average Humidity 79    
Maximum Humidity 93    
Minimum Humidity 65    
Precipitation  
Precipitation T in 0.14 in 3.20 in (2001)
Month to date precipitation 8.00 3.00  
Year to date precipitation 36.86 25.33  
Snow  
Snow 0.00 in 0.00 in 0.00 in ()
Month to date snowfall T 0.0  
Year to date snowfall 18.5 11.3  
Since 1 July snowfall T 0.0  
Snow Depth 0.00 in    
Sea Level Pressure  
Sea Level Pressure 29.97 in    
Wind  
Wind Speed 6 mph (ENE)    
Max Wind Speed 12 mph    
Max Gust Speed 15 mph    
Visibility 10 miles    
Events Rain , Thunderstorm    
T = Trace of Precipitation, MM = Missing Value Source: NWS Daily Summary

Daily Weather History Graph

Daily Weather History Graph

Search for Another Location

Airport or City:

Astronomy

Aug. 22, 2019 Rise Set
Actual Time 6:41 AM CDT 8:08 PM CDT
Civil Twilight 6:13 AM CDT 8:36 PM CDT
Nautical Twilight 5:40 AM CDT 9:09 PM CDT
Astronomical Twilight 5:04 AM CDT 9:44 PM CDT
Moon No Moon Rise 1:15 PM CDT (8/22)
Length of Visible Light 14h 22m
Length of Day
13h 26m
Waning Gibbous, 59% of the Moon is Illuminated
Aug 22
Waning Gibbous
Aug 23
Last Quarter
Aug 30
New
Sep 5
First Quarter
Sep 13
Full

Hourly Weather History & Observations

Time (CDT) Temp. Heat Index Dew Point Humidity Pressure Visibility Wind Dir Wind Speed Gust Speed Precip Events Conditions
12:42 AM 73.0 °F - 69.1 °F 87% 29.99 in 10.0 mi ENE 4.6 mph - N/A Thunderstorm Mostly Cloudy
12:53 AM 73.0 °F - 69.1 °F 87% 29.98 in 10.0 mi ESE 6.9 mph - N/A   Overcast
1:12 AM 73.0 °F - 69.1 °F 87% 30.01 in 10.0 mi East 4.6 mph - N/A   Overcast
1:31 AM 73.0 °F - 69.1 °F 87% 29.99 in 10.0 mi ENE 3.5 mph - N/A   Overcast
1:53 AM 73.0 °F - 70.0 °F 90% 29.97 in 10.0 mi NE 5.8 mph - 0.00 in Rain Light Rain
2:39 AM 73.0 °F - 70.0 °F 90% 29.98 in 10.0 mi ENE 5.8 mph - 0.00 in   Overcast
2:53 AM 73.0 °F - 70.0 °F 90% 29.96 in 10.0 mi ENE 4.6 mph - 0.00 in   Overcast
3:04 AM 73.0 °F - 70.0 °F 90% 29.98 in 10.0 mi East 4.6 mph - N/A   Mostly Cloudy
3:53 AM 73.0 °F - 70.0 °F 90% 29.96 in 10.0 mi ENE 4.6 mph - N/A   Overcast
4:34 AM 73.0 °F - 70.0 °F 90% 29.97 in 10.0 mi East 3.5 mph - N/A   Overcast
4:44 AM 73.0 °F - 70.0 °F 90% 29.97 in 10.0 mi ENE 4.6 mph - N/A   Overcast
4:53 AM 73.0 °F - 70.0 °F 90% 29.94 in 10.0 mi East 5.8 mph - N/A   Overcast
5:03 AM 73.0 °F - 70.0 °F 90% 29.97 in 10.0 mi East 3.5 mph - N/A   Overcast
5:38 AM 73.0 °F - 70.0 °F 90% 29.96 in 10.0 mi East 6.9 mph - N/A   Overcast
5:53 AM 73.0 °F - 70.0 °F 90% 29.95 in 10.0 mi ENE 5.8 mph - N/A   Overcast
6:40 AM 72.0 °F - 69.1 °F 91% 29.99 in 10.0 mi ENE 4.6 mph - N/A   Overcast
6:53 AM 72.0 °F - 69.1 °F 91% 29.98 in 10.0 mi East 5.8 mph - N/A   Overcast
7:24 AM 73.0 °F - 70.0 °F 90% 30.00 in 10.0 mi East 4.6 mph - N/A   Overcast
7:53 AM 73.4 °F - 69.8 °F 88% 30.00 in 10.0 mi East 4.6 mph - N/A   Mostly Cloudy
8:00 AM 73.0 °F - 70.0 °F 90% 30.00 in 10.0 mi East 4.6 mph - N/A   Mostly Cloudy
8:39 AM 73.9 °F - 70.0 °F 87% 30.00 in 10.0 mi NE 6.9 mph - N/A   Unknown
8:53 AM 73.9 °F - 70.0 °F 87% 29.98 in 10.0 mi NE 6.9 mph - N/A   Mostly Cloudy
9:00 AM 73.9 °F - 70.0 °F 87% 30.00 in 10.0 mi ENE 4.6 mph - N/A   Overcast
9:14 AM 73.9 °F - 70.0 °F 87% 30.01 in 10.0 mi East 4.6 mph - N/A   Overcast
9:27 AM 73.9 °F - 70.0 °F 87% 30.00 in 10.0 mi ENE 6.9 mph - N/A   Overcast
9:35 AM 73.0 °F - 70.0 °F 90% 30.00 in 10.0 mi East 5.8 mph - N/A   Overcast
9:53 AM 73.0 °F - 70.0 °F 90% 29.99 in 10.0 mi East 5.8 mph - N/A   Overcast
10:53 AM 75.0 °F - 68.0 °F 79% 30.00 in 10.0 mi SSW 3.5 mph - N/A   Overcast
11:53 AM 78.1 °F - 68.0 °F 71% 29.99 in 10.0 mi Calm Calm - N/A   Overcast
12:46 PM 79.0 °F - 70.0 °F 74% 29.99 in 10.0 mi North 5.8 mph - N/A   Overcast
12:53 PM 79.0 °F - 69.1 °F 72% 29.97 in 10.0 mi NE 5.8 mph - N/A   Overcast
1:53 PM 82.0 °F 86.3 °F 71.1 °F 69% 29.95 in 10.0 mi East 8.1 mph - N/A   Scattered Clouds
2:53 PM 82.0 °F 85.9 °F 70.0 °F 67% 29.94 in 10.0 mi NE 9.2 mph - N/A   Mostly Cloudy
3:53 PM 81.0 °F 84.4 °F 70.0 °F 69% 29.93 in 10.0 mi East 10.4 mph - N/A   Mostly Cloudy
4:53 PM 81.0 °F 84.4 °F 70.0 °F 69% 29.93 in 10.0 mi East 8.1 mph - N/A   Mostly Cloudy
5:53 PM 80.1 °F 83.2 °F 70.0 °F 71% 29.92 in 10.0 mi East 4.6 mph - N/A   Overcast
6:53 PM 79.0 °F - 70.0 °F 74% 29.92 in 10.0 mi ENE 4.6 mph - N/A   Mostly Cloudy
7:53 PM 78.1 °F - 70.0 °F 76% 29.95 in 10.0 mi NE 5.8 mph - N/A   Scattered Clouds
8:53 PM 75.9 °F - 70.0 °F 82% 29.94 in 10.0 mi East 4.6 mph - N/A   Scattered Clouds
9:53 PM 75.0 °F - 70.0 °F 84% 29.95 in 10.0 mi East 6.9 mph - N/A   Partly Cloudy
10:53 PM 73.9 °F - 69.1 °F 85% 29.97 in 10.0 mi East 4.6 mph - N/A   Clear
11:53 PM 73.0 °F - 69.1 °F 87% 29.99 in 10.0 mi NNE 3.5 mph - N/A   Overcast